When you browse on this site, cookies collect data to enhance your experience and personalize the content and advertising you see.
Visit our Privacy Policy to learn more. By continuing to use the site, you agree to this use of cookies and data.
  • In United Kingdom
  • List of Countries
  • For 7 days
  • Water Temperature
  • Satellite Maps
  • Weather Map
  • Weather Widgets
  • user-avatar
    Login

    Hourly Weather Abancay

    Today, 20 July, Saturday

    Time Temperature Precipitation Wind Pressure Humidity
    00:00 +10°C° 0 mm 1 mps 543 mmHg 92%
    01:00 +10°C° 0 mm 1 mps 543 mmHg 93%
    02:00 +10°C° 0 mm 1 mps 543 mmHg 91%
    03:00 +10°C° 0 mm 1 mps 544 mmHg 90%
    04:00 +10°C° 0 mm 1 mps 544 mmHg 89%
    05:00 +10°C° 0 mm 1 mps 544 mmHg 88%
    06:00 +10°C° 0 mm 1 mps 544 mmHg 86%
    07:00 +10°C° 0 mm 1 mps 544 mmHg 85%
    08:00 +12°C° 0 mm 1 mps 545 mmHg 77%
    09:00 +13°C° 0 mm 1 mps 546 mmHg 69%
    10:00 +15°C° 0 mm 1 mps 547 mmHg 61%
    11:00 +16°C° 0.1 mm 1 mps 547 mmHg 56%
    12:00 +17°C° 0.1 mm 2 mps 546 mmHg 51%
    13:00 +19°C° 0.1 mm 3 mps 546 mmHg 46%
    14:00 +19°C° 0.3 mm 3 mps 546 mmHg 46%
    15:00 +18°C° 0.3 mm 3 mps 545 mmHg 47%
    16:00 +18°C° 0.3 mm 3 mps 545 mmHg 48%
    17:00 +16°C° 0.2 mm 2 mps 544 mmHg 58%
    18:00 +14°C° 0.2 mm 2 mps 543 mmHg 68%
    19:00 +12°C° 0.2 mm 1 mps 543 mmHg 78%
    20:00 +12°C° 0 mm 1 mps 543 mmHg 81%
    21:00 +11°C° 0 mm 1 mps 543 mmHg 84%
    22:00 +9°C° 0 mm 0 mps 543 mmHg 87%
    23:00 +9°C° 0 mm 0 mps 543 mmHg 87%

    Tomorrow, 21 July, Sunday

    Time Temperature Precipitation Wind Pressure Humidity
    00:00 +9°C° 0 mm 0 mps 543 mmHg 87%
    01:00 +8°C° 0 mm 0 mps 542 mmHg 88%
    02:00 +8°C° 0 mm 0 mps 542 mmHg 87%
    03:00 +8°C° 0 mm 0 mps 542 mmHg 87%
    04:00 +8°C° 0 mm 0 mps 542 mmHg 86%
    05:00 +9°C° 0 mm 1 mps 542 mmHg 84%
    06:00 +10°C° 0 mm 1 mps 543 mmHg 81%
    07:00 +10°C° 0 mm 1 mps 544 mmHg 79%
    08:00 +12°C° 0 mm 1 mps 545 mmHg 70%
    09:00 +15°C° 0 mm 1 mps 546 mmHg 62%
    10:00 +18°C° 0 mm 1 mps 547 mmHg 53%
    11:00 +18°C° 0.2 mm 2 mps 546 mmHg 50%
    12:00 +19°C° 0.2 mm 2 mps 546 mmHg 47%
    13:00 +20°C° 0.2 mm 3 mps 546 mmHg 44%
    14:00 +19°C° 0.2 mm 3 mps 546 mmHg 45%
    15:00 +19°C° 0.2 mm 3 mps 545 mmHg 46%
    16:00 +19°C° 0.2 mm 3 mps 544 mmHg 47%
    17:00 +17°C° 0 mm 2 mps 544 mmHg 57%
    18:00 +15°C° 0 mm 2 mps 543 mmHg 68%
    19:00 +12°C° 0 mm 1 mps 543 mmHg 78%
    20:00 +12°C° 0 mm 1 mps 543 mmHg 81%
    21:00 +11°C° 0 mm 1 mps 543 mmHg 85%
    22:00 +10°C° 0 mm 0 mps 543 mmHg 88%
    23:00 +9°C° 0 mm 0 mps 543 mmHg 89%

    Day after tomorrow, 22 July, Monday

    Time Temperature Precipitation Wind Pressure Humidity
    00:00 +9°C° 0 mm 0 mps 543 mmHg 91%
    01:00 +9°C° 0 mm 0 mps 542 mmHg 92%
    02:00 +9°C° 0 mm 0 mps 542 mmHg 91%
    03:00 +9°C° 0 mm 0 mps 542 mmHg 90%
    04:00 +9°C° 0 mm 0 mps 542 mmHg 90%
    05:00 +9°C° 0 mm 0 mps 543 mmHg 88%
    06:00 +10°C° 0 mm 0 mps 543 mmHg 86%
    07:00 +10°C° 0 mm 0 mps 544 mmHg 84%
    08:00 +12°C° 0 mm 0 mps 544 mmHg 75%
    09:00 +14°C° 0 mm 1 mps 545 mmHg 67%
    10:00 +16°C° 0 mm 1 mps 546 mmHg 59%
    11:00 +17°C° 0.2 mm 2 mps 546 mmHg 54%
    12:00 +19°C° 0.2 mm 2 mps 546 mmHg 49%
    13:00 +20°C° 0.2 mm 3 mps 546 mmHg 45%
    14:00 +19°C° 0.5 mm 3 mps 545 mmHg 46%
    15:00 +19°C° 0.5 mm 3 mps 545 mmHg 48%
    16:00 +19°C° 0.5 mm 3 mps 544 mmHg 50%
    17:00 +17°C° 0.4 mm 2 mps 543 mmHg 62%
    18:00 +15°C° 0.4 mm 2 mps 543 mmHg 73%
    19:00 +12°C° 0.4 mm 2 mps 542 mmHg 85%
    20:00 +12°C° 0 mm 1 mps 542 mmHg 88%
    21:00 +11°C° 0 mm 1 mps 543 mmHg 90%
    22:00 +11°C° 0 mm 1 mps 543 mmHg 93%
    23:00 +11°C° 0 mm 1 mps 543 mmHg 93%

    23 July, Tuesday

    Time Temperature Precipitation Wind Pressure Humidity
    00:00 +11°C° 0 mm 1 mps 543 mmHg 92%
    01:00 +11°C° 0 mm 1 mps 543 mmHg 92%
    02:00 +11°C° 0 mm 1 mps 543 mmHg 91%
    03:00 +11°C° 0 mm 1 mps 543 mmHg 90%
    04:00 +11°C° 0 mm 1 mps 542 mmHg 90%
    05:00 +11°C° 0 mm 1 mps 543 mmHg 89%
    06:00 +10°C° 0 mm 0 mps 543 mmHg 87%
    07:00 +10°C° 0 mm 0 mps 544 mmHg 86%
    08:00 +12°C° 0.1 mm 1 mps 544 mmHg 80%
    09:00 +14°C° 0.1 mm 1 mps 545 mmHg 74%
    10:00 +15°C° 0.1 mm 2 mps 545 mmHg 69%
    11:00 +16°C° 0.6 mm 2 mps 545 mmHg 66%
    12:00 +16°C° 0.6 mm 2 mps 545 mmHg 64%
    13:00 +17°C° 0.6 mm 3 mps 544 mmHg 61%
    14:00 +17°C° 0.7 mm 3 mps 544 mmHg 62%
    15:00 +17°C° 0.7 mm 3 mps 543 mmHg 63%
    16:00 +17°C° 0.7 mm 3 mps 543 mmHg 63%
    17:00 +14°C° 0.7 mm 3 mps 543 mmHg 72%
    18:00 +14°C° 0.7 mm 2 mps 542 mmHg 82%
    19:00 +12°C° 0.7 mm 2 mps 542 mmHg 91%
    20:00 +10°C° 0.5 mm 2 mps 542 mmHg 92%
    21:00 +11°C° 0.5 mm 1 mps 543 mmHg 93%
    22:00 +11°C° 0.5 mm 1 mps 543 mmHg 95%
    23:00 +11°C° 0 mm 1 mps 543 mmHg 95%

    24 July, Wednesday

    Time Temperature Precipitation Wind Pressure Humidity
    00:00 +11°C° 0 mm 1 mps 543 mmHg 94%
    01:00 +11°C° 0 mm 1 mps 543 mmHg 94%
    02:00 +11°C° 0 mm 1 mps 542 mmHg 94%
    03:00 +10°C° 0 mm 1 mps 542 mmHg 95%
    04:00 +10°C° 0 mm 1 mps 541 mmHg 95%
    05:00 +10°C° 0 mm 1 mps 542 mmHg 94%
    06:00 +11°C° 0 mm 1 mps 543 mmHg 92%
    07:00 +11°C° 0 mm 1 mps 543 mmHg 90%
    08:00 +12°C° 0.1 mm 1 mps 544 mmHg 83%
    09:00 +14°C° 0.1 mm 2 mps 545 mmHg 77%
    10:00 +15°C° 0.1 mm 2 mps 545 mmHg 70%
    11:00 +16°C° 0.3 mm 2 mps 545 mmHg 65%
    12:00 +17°C° 0.3 mm 3 mps 545 mmHg 61%
    13:00 +18°C° 0.3 mm 3 mps 545 mmHg 56%
    14:00 +18°C° 0.1 mm 3 mps 544 mmHg 56%
    15:00 +18°C° 0.1 mm 3 mps 544 mmHg 55%
    16:00 +18°C° 0.1 mm 3 mps 544 mmHg 54%
    17:00 +16°C° 0 mm 2 mps 543 mmHg 65%
    18:00 +14°C° 0 mm 2 mps 543 mmHg 76%
    19:00 +12°C° 0 mm 2 mps 542 mmHg 86%
    20:00 +12°C° 0.1 mm 1 mps 543 mmHg 89%
    21:00 +12°C° 0.1 mm 1 mps 543 mmHg 91%
    22:00 +11°C° 0.1 mm 1 mps 543 mmHg 93%
    23:00 +11°C° 0 mm 1 mps 543 mmHg 92%

    25 July, Thursday

    Time Temperature Precipitation Wind Pressure Humidity
    00:00 +11°C° 0 mm 1 mps 543 mmHg 91%
    01:00 +11°C° 0 mm 1 mps 543 mmHg 91%
    02:00 +11°C° 0 mm 1 mps 543 mmHg 90%
    03:00 +11°C° 0 mm 1 mps 543 mmHg 89%
    04:00 +10°C° 0 mm 0 mps 542 mmHg 89%
    05:00 +10°C° 0 mm 0 mps 543 mmHg 87%
    06:00 +10°C° 0 mm 0 mps 543 mmHg 85%
    07:00 +10°C° 0 mm 0 mps 544 mmHg 83%
    08:00 +12°C° 0 mm 1 mps 545 mmHg 76%
    09:00 +14°C° 0 mm 1 mps 545 mmHg 69%
    10:00 +16°C° 0 mm 1 mps 546 mmHg 61%
    11:00 +18°C° 0 mm 1 mps 546 mmHg 57%
    12:00 +18°C° 0 mm 2 mps 546 mmHg 53%
    13:00 +19°C° 0 mm 2 mps 546 mmHg 49%
    14:00 +18°C° 0.1 mm 3 mps 545 mmHg 51%
    15:00 +18°C° 0.1 mm 3 mps 545 mmHg 53%
    16:00 +18°C° 0.1 mm 3 mps 544 mmHg 55%
    17:00 +16°C° 0.1 mm 3 mps 544 mmHg 67%
    18:00 +14°C° 0.1 mm 2 mps 543 mmHg 80%
    19:00 +12°C° 0.1 mm 2 mps 543 mmHg 93%
    20:00 +12°C° 0.3 mm 2 mps 543 mmHg 93%
    21:00 +12°C° 0.3 mm 2 mps 544 mmHg 93%
    22:00 +12°C° 0.3 mm 2 mps 544 mmHg 93%
    23:00 +11°C° 0.1 mm 1 mps 544 mmHg 93%
    Show more